| time (UTC) | temp C | wind direction | speed KPH | gust KPH | rain 1hr cm | rain 24hr cm | rain mn cm | humidity % | barometer mb |
| 20260507003836 | 25 | 271 | 0.0 | 3.2 | 0.00 | 0.00 | 0.00 | 67 | 1015.6 |
| 20260507003331 | 25 | 220 | 3.2 | 4.8 | 0.00 | 0.00 | 0.00 | 67 | 1015.6 |
| 20260507002826 | 25 | 249 | 1.6 | 6.4 | 0.00 | 0.00 | 0.00 | 67 | 1015.3 |
| 20260507002322 | 25 | 312 | 1.6 | 6.4 | 0.00 | 0.00 | 0.00 | 67 | 1015.4 |
| 20260507001820 | 25 | 306 | 3.2 | 4.8 | 0.00 | 0.00 | 0.00 | 67 | 1015.3 |
| 20260507001317 | 25 | 299 | 0.0 | 4.8 | 0.00 | 0.00 | 0.00 | 67 | 1015.1 |
| 20260507000813 | 25 | 39 | 0.0 | 4.8 | 0.00 | 0.00 | 0.00 | 67 | 1015.3 |
| 20260507000309 | 25 | 114 | 0.0 | 4.8 | 0.00 | 0.00 | 0.00 | 67 | 1015.2 |
| 20260506235806 | 25 | 5 | 1.6 | 4.8 | 0.00 | 0.00 | 0.00 | 67 | 1015.0 |
| 20260506235306 | 25 | 166 | 3.2 | 6.4 | 0.00 | 0.00 | 0.00 | 67 | 1014.9 |
| 20260506234753 | 26 | 2 | 0.0 | 4.8 | 0.00 | 0.00 | 0.00 | 67 | 1014.8 |
| 20260506234250 | 26 | 196 | 1.6 | 6.4 | 0.00 | 0.00 | 0.00 | 67 | 1014.9 |
| 20260506233748 | 26 | 336 | 3.2 | 9.7 | 0.00 | 0.00 | 0.00 | 67 | 1014.9 |
| 20260506233244 | 26 | 254 | 0.0 | 6.4 | 0.00 | 0.00 | 0.00 | 66 | 1014.9 |
| 20260506232741 | 26 | 25 | 1.6 | 6.4 | 0.00 | 0.00 | 0.00 | 65 | 1014.9 |
| 20260506232236 | 26 | 293 | 1.6 | 8.0 | 0.00 | 0.00 | 0.00 | 64 | 1014.8 |
| 20260506231733 | 27 | 33 | 0.0 | 8.0 | 0.00 | 0.00 | 0.00 | 64 | 1014.9 |
| 20260506231232 | 27 | 43 | 1.6 | 4.8 | 0.00 | 0.00 | 0.00 | 64 | 1014.8 |
| 20260506230729 | 27 | 111 | 0.0 | 8.0 | 0.00 | 0.00 | 0.00 | 63 | 1014.5 |
| 20260506230225 | 27 | 241 | 0.0 | 6.4 | 0.00 | 0.00 | 0.00 | 63 | 1014.7 |
| 20260506225721 | 27 | 355 | 0.0 | 6.4 | 0.00 | 0.00 | 0.00 | 62 | 1014.6 |
| 20260506225218 | 27 | 292 | 3.2 | 8.0 | 0.00 | 0.00 | 0.00 | 62 | 1014.7 |
| 20260506224715 | 27 | 331 | 3.2 | 6.4 | 0.00 | 0.00 | 0.00 | 62 | 1014.8 |
| 20260506224212 | 28 | 45 | 3.2 | 11.3 | 0.00 | 0.00 | 0.00 | 62 | 1014.9 |
| 20260506223709 | 28 | 34 | 0.0 | 4.8 | 0.00 | 0.00 | 0.00 | 60 | 1014.9 |
| 20260506223204 | 30 | 121 | 1.6 | 12.9 | 0.00 | 0.00 | 0.00 | 59 | 1014.8 |
| 20260506222701 | 30 | 29 | 0.0 | 4.8 | 0.00 | 0.00 | 0.00 | 58 | 1015.0 |
| 20260506222156 | 30 | 37 | 4.8 | 14.5 | 0.00 | 0.00 | 0.00 | 58 | 1015.0 |
| 20260506221650 | 30 | 331 | 3.2 | 6.4 | 0.00 | 0.00 | 0.00 | 57 | 1014.9 |
| 20260506221148 | 31 | 38 | 8.0 | 11.3 | 0.00 | 0.00 | 0.00 | 56 | 1014.8 |
| 20260506220644 | 30 | 271 | 3.2 | 4.8 | 0.00 | 0.00 | 0.00 | 57 | 1014.9 |
| 20260506220139 | 30 | 10 | 3.2 | 11.3 | 0.00 | 0.00 | 0.00 | 58 | 1014.9 |
| 20260506215636 | 31 | 31 | 4.8 | 11.3 | 0.00 | 0.00 | 0.00 | 57 | 1014.8 |
| 20260506215131 | 30 | 235 | 6.4 | 11.3 | 0.00 | 0.00 | 0.00 | 58 | 1014.8 |
| 20260506214628 | 32 | 293 | 3.2 | 4.8 | 0.00 | 0.00 | 0.00 | 53 | 1014.7 |
| 20260506214125 | 32 | 313 | 4.8 | 6.4 | 0.00 | 0.00 | 0.00 | 54 | 1014.8 |
| 20260506213624 | 31 | 246 | 1.6 | 8.0 | 0.00 | 0.00 | 0.00 | 55 | 1014.6 |
| 20260506213121 | 32 | 54 | 6.4 | 9.7 | 0.00 | 0.00 | 0.00 | 53 | 1014.7 |
| 20260506212618 | 32 | 335 | 0.0 | 12.9 | 0.00 | 0.00 | 0.00 | 54 | 1014.6 |
| 20260506212113 | 32 | 24 | 1.6 | 9.7 | 0.00 | 0.00 | 0.00 | 54 | 1014.5 |
| 20260506211608 | 31 | 47 | 3.2 | 11.3 | 0.00 | 0.00 | 0.00 | 55 | 1014.8 |
| 20260506211106 | 31 | 357 | 3.2 | 9.7 | 0.00 | 0.00 | 0.00 | 55 | 1014.7 |
| 20260506210602 | 31 | 242 | 3.2 | 11.3 | 0.00 | 0.00 | 0.00 | 55 | 1014.9 |
| 20260506210059 | 31 | 153 | 4.8 | 9.7 | 0.00 | 0.00 | 0.00 | 55 | 1014.8 |
| 20260506205556 | 31 | 47 | 3.2 | 8.0 | 0.00 | 0.00 | 0.00 | 56 | 1014.8 |
| 20260506205051 | 32 | 322 | 4.8 | 9.7 | 0.00 | 0.00 | 0.00 | 53 | 1014.9 |
| 20260506204549 | 32 | 213 | 1.6 | 11.3 | 0.00 | 0.00 | 0.00 | 54 | 1014.8 |
| 20260506204046 | 32 | 79 | 0.0 | 9.7 | 0.00 | 0.00 | 0.00 | 53 | 1014.9 |
| 20260506203544 | 32 | 303 | 4.8 | 9.7 | 0.00 | 0.00 | 0.00 | 52 | 1015.0 |
| 20260506203040 | 31 | 78 | 6.4 | 17.7 | 0.00 | 0.00 | 0.00 | 52 | 1014.9 |
| 20260506202538 | 32 | 233 | 4.8 | 16.1 | 0.00 | 0.00 | 0.00 | 52 | 1014.7 |
| 20260506202034 | 31 | 43 | 6.4 | 9.7 | 0.00 | 0.00 | 0.00 | 54 | 1014.9 |
| 20260506201532 | 32 | 298 | 3.2 | 8.0 | 0.00 | 0.00 | 0.00 | 51 | 1014.9 |
| 20260506201028 | 32 | 15 | 3.2 | 8.0 | 0.00 | 0.00 | 0.00 | 51 | 1015.1 |
| 20260506200524 | 32 | 207 | 3.2 | 9.7 | 0.00 | 0.00 | 0.00 | 50 | 1015.0 |
| 20260506200021 | 33 | 1 | 0.0 | 9.7 | 0.00 | 0.00 | 0.00 | 48 | 1015.1 |
| 20260506195518 | 33 | 276 | 4.8 | 9.7 | 0.00 | 0.00 | 0.00 | 39 | 1015.3 |
| 20260506195014 | 34 | 229 | 3.2 | 8.0 | 0.00 | 0.00 | 0.00 | 38 | 1015.2 |
| 20260506194512 | 33 | 251 | 3.2 | 9.7 | 0.00 | 0.00 | 0.00 | 42 | 1015.3 |
| 20260506194008 | 34 | 226 | 1.6 | 9.7 | 0.00 | 0.00 | 0.00 | 38 | 1015.4 |
| 20260506193505 | 32 | 235 | 12.9 | 14.5 | 0.00 | 0.00 | 0.00 | 39 | 1015.3 |
| 20260506192956 | 33 | 243 | 8.0 | 14.5 | 0.00 | 0.00 | 0.00 | 37 | 1015.3 |
| 20260506192454 | 33 | 243 | 3.2 | 8.0 | 0.00 | 0.00 | 0.00 | 38 | 1015.6 |
| 20260506191949 | 33 | 318 | 0.0 | 9.7 | 0.00 | 0.00 | 0.00 | 41 | 1015.6 |
| 20260506191447 | 33 | 210 | 3.2 | 16.1 | 0.00 | 0.00 | 0.00 | 41 | 1015.7 |
| 20260506190942 | 34 | 315 | 1.6 | 4.8 | 0.00 | 0.00 | 0.00 | 39 | 1015.9 |
| 20260506190439 | 33 | 253 | 4.8 | 9.7 | 0.00 | 0.00 | 0.00 | 39 | 1015.8 |
| 20260506185931 | 34 | 244 | 6.4 | 8.0 | 0.00 | 0.00 | 0.00 | 38 | 1016.1 |
| 20260506185428 | 33 | 98 | 4.8 | 6.4 | 0.00 | 0.00 | 0.00 | 39 | 1015.8 |
| 20260506184925 | 33 | 256 | 3.2 | 8.0 | 0.00 | 0.00 | 0.00 | 40 | 1015.9 |
| 20260506184422 | 33 | 229 | 3.2 | 6.4 | 0.00 | 0.00 | 0.00 | 47 | 1016.0 |
| 20260506183919 | 32 | 202 | 0.0 | 6.4 | 0.00 | 0.00 | 0.00 | 44 | 1016.0 |
| 20260506183414 | 32 | 211 | 3.2 | 9.7 | 0.00 | 0.00 | 0.00 | 47 | 1016.0 |
| 20260506182912 | 33 | 199 | 4.8 | 9.7 | 0.00 | 0.00 | 0.00 | 41 | 1016.1 |
| 20260506182409 | 33 | 259 | 0.0 | 6.4 | 0.00 | 0.00 | 0.00 | 46 | 1016.2 |
| 20260506181907 | 32 | 330 | 0.0 | 6.4 | 0.00 | 0.00 | 0.00 | 45 | 1016.2 |
| 20260506181404 | 32 | 19 | 0.0 | 8.0 | 0.00 | 0.00 | 0.00 | 43 | 1016.4 |
| 20260506180901 | 32 | 250 | 3.2 | 11.3 | 0.00 | 0.00 | 0.00 | 43 | 1016.4 |
| 20260506180357 | 32 | 296 | 1.6 | 6.4 | 0.00 | 0.00 | 0.00 | 47 | 1016.5 |
| 20260506175854 | 31 | 272 | 3.2 | 12.9 | 0.00 | 0.00 | 0.00 | 46 | 1016.5 |
| 20260506175350 | 32 | 256 | 8.0 | 16.1 | 0.00 | 0.00 | 0.00 | 44 | 1016.6 |
| 20260506174847 | 32 | 59 | 0.0 | 4.8 | 0.00 | 0.00 | 0.00 | 46 | 1016.5 |
| 20260506174344 | 31 | 242 | 8.0 | 12.9 | 0.00 | 0.00 | 0.00 | 47 | 1016.7 |
| 20260506173842 | 32 | 244 | 8.0 | 11.3 | 0.00 | 0.00 | 0.00 | 45 | 1016.8 |
| 20260506173338 | 32 | 330 | 1.6 | 8.0 | 0.00 | 0.00 | 0.00 | 45 | 1016.7 |
| 20260506172836 | 32 | 244 | 6.4 | 9.7 | 0.00 | 0.00 | 0.00 | 47 | 1016.9 |
| 20260506172333 | 31 | 270 | 4.8 | 16.1 | 0.00 | 0.00 | 0.00 | 48 | 1016.8 |
| 20260506171830 | 31 | 225 | 8.0 | 14.5 | 0.00 | 0.00 | 0.00 | 50 | 1017.1 |
| 20260506171327 | 31 | 243 | 3.2 | 12.9 | 0.00 | 0.00 | 0.00 | 49 | 1017.1 |
| 20260506170824 | 31 | 269 | 4.8 | 8.0 | 0.00 | 0.00 | 0.00 | 48 | 1017.0 |
| 20260506170320 | 31 | 45 | 0.0 | 8.0 | 0.00 | 0.00 | 0.00 | 49 | 1017.0 |
| 20260506165819 | 30 | 193 | 4.8 | 12.9 | 0.00 | 0.00 | 0.00 | 51 | 1017.1 |
| 20260506165316 | 30 | 236 | 4.8 | 11.3 | 0.00 | 0.00 | 0.00 | 49 | 1017.2 |
| 20260506164813 | 30 | 238 | 14.5 | 19.3 | 0.00 | 0.00 | 0.00 | 48 | 1017.3 |
| 20260506164310 | 30 | 166 | 0.0 | 8.0 | 0.00 | 0.00 | 0.00 | 51 | 1017.1 |
| 20260506163807 | 30 | 94 | 4.8 | 9.7 | 0.00 | 0.00 | 0.00 | 49 | 1017.2 |
| 20260506163301 | 30 | 225 | 4.8 | 11.3 | 0.00 | 0.00 | 0.00 | 52 | 1017.5 |
| 20260506162757 | 30 | 257 | 1.6 | 9.7 | 0.00 | 0.00 | 0.00 | 52 | 1017.4 |
| 20260506162255 | 29 | 225 | 1.6 | 9.7 | 0.00 | 0.00 | 0.00 | 52 | 1017.7 |
| 20260506161747 | 30 | 235 | 11.3 | 12.9 | 0.00 | 0.00 | 0.00 | 53 | 1017.7 |
| 20260506161244 | 30 | 213 | 4.8 | 16.1 | 0.00 | 0.00 | 0.00 | 54 | 1017.5 |
| 20260506160741 | 30 | 40 | 0.0 | 6.4 | 0.00 | 0.00 | 0.00 | 53 | 1017.5 |
| 20260506160238 | 30 | 276 | 4.8 | 8.0 | 0.00 | 0.00 | 0.00 | 55 | 1017.5 |
| 20260506155736 | 29 | 228 | 3.2 | 14.5 | 0.00 | 0.00 | 0.00 | 55 | 1017.7 |
| 20260506155233 | 28 | 228 | 4.8 | 16.1 | 0.00 | 0.00 | 0.00 | 56 | 1017.7 |
| 20260506153346 | 28 | 269 | 4.8 | 11.3 | 0.00 | 0.00 | 0.00 | 56 | 1017.6 |
| 20260506152843 | 28 | 240 | 6.4 | 14.5 | 0.00 | 0.00 | 0.00 | 56 | 1017.8 |
| 20260506152340 | 30 | 261 | 3.2 | 11.3 | 0.00 | 0.00 | 0.00 | 54 | 1017.5 |
| 20260506151839 | 29 | 318 | 1.6 | 6.4 | 0.00 | 0.00 | 0.00 | 52 | 1017.4 |
| 20260506151335 | 28 | 9 | 3.2 | 8.0 | 0.00 | 0.00 | 0.00 | 57 | 1017.3 |
| 20260506150832 | 28 | 247 | 1.6 | 8.0 | 0.00 | 0.00 | 0.00 | 56 | 1017.5 |
| 20260506150329 | 28 | 260 | 3.2 | 14.5 | 0.00 | 0.00 | 0.00 | 57 | 1017.4 |
| 20260506145826 | 28 | 274 | 0.0 | 9.7 | 0.00 | 0.00 | 0.00 | 57 | 1017.4 |
| 20260506145322 | 28 | 66 | 0.0 | 16.1 | 0.00 | 0.00 | 0.00 | 58 | 1017.3 |
| 20260506144820 | 28 | 260 | 1.6 | 6.4 | 0.00 | 0.00 | 0.00 | 57 | 1017.4 |
| 20260506144316 | 27 | 161 | 4.8 | 9.7 | 0.00 | 0.00 | 0.00 | 57 | 1017.4 |
| 20260506143815 | 27 | 8 | 0.0 | 17.7 | 0.00 | 0.00 | 0.00 | 59 | 1017.6 |
| 20260506143311 | 28 | 254 | 0.0 | 8.0 | 0.00 | 0.00 | 0.00 | 60 | 1017.4 |
| 20260506142810 | 28 | 61 | 0.0 | 8.0 | 0.00 | 0.00 | 0.00 | 60 | 1017.2 |
| 20260506142307 | 28 | 76 | 1.6 | 8.0 | 0.00 | 0.00 | 0.00 | 59 | 1017.3 |
| 20260506141805 | 27 | 69 | 3.2 | 8.0 | 0.00 | 0.00 | 0.00 | 62 | 1017.3 |
| 20260506141303 | 27 | 324 | 3.2 | 9.7 | 0.00 | 0.00 | 0.00 | 62 | 1017.3 |
| 20260506140801 | 26 | 315 | 4.8 | 9.7 | 0.00 | 0.00 | 0.00 | 64 | 1017.2 |
| 20260506140257 | 26 | 222 | 3.2 | 9.7 | 0.00 | 0.00 | 0.00 | 63 | 1017.2 |
| 20260506135754 | 27 | 204 | 1.6 | 6.4 | 0.00 | 0.00 | 0.00 | 65 | 1017.1 |
| 20260506135250 | 26 | 271 | 8.0 | 8.0 | 0.00 | 0.00 | 0.00 | 65 | 1017.1 |
| 20260506134747 | 26 | 231 | 4.8 | 8.0 | 0.00 | 0.00 | 0.00 | 67 | 1017.3 |
| 20260506134244 | 27 | 304 | 1.6 | 4.8 | 0.00 | 0.00 | 0.00 | 68 | 1017.4 |
| 20260506133741 | 26 | 163 | 0.0 | 8.0 | 0.00 | 0.00 | 0.00 | 70 | 1017.4 |
| 20260506133238 | 25 | 162 | 1.6 | 8.0 | 0.00 | 0.00 | 0.00 | 72 | 1017.5 |
| 20260506132734 | 25 | 232 | 3.2 | 8.0 | 0.00 | 0.00 | 0.00 | 71 | 1017.3 |
| 20260506132232 | 25 | 295 | 3.2 | 4.8 | 0.00 | 0.00 | 0.00 | 72 | 1017.1 |
| 20260506131730 | 24 | 71 | 0.0 | 4.8 | 0.00 | 0.00 | 0.00 | 74 | 1017.4 |
| 20260506131225 | 23 | 234 | 3.2 | 8.0 | 0.00 | 0.00 | 0.00 | 75 | 1017.1 |
| 20260506130722 | 23 | 332 | 1.6 | 8.0 | 0.00 | 0.00 | 0.00 | 76 | 1017.3 |
| 20260506130219 | 23 | 337 | 0.0 | 4.8 | 0.00 | 0.00 | 0.00 | 76 | 1017.2 |
| 20260506125717 | 23 | 246 | 0.0 | 8.0 | 0.00 | 0.00 | 0.00 | 76 | 1017.4 |
| 20260506125215 | 23 | 157 | 1.6 | 3.2 | 0.00 | 0.00 | 0.00 | 77 | 1017.4 |
| 20260506124713 | 22 | 192 | 0.0 | 4.8 | 0.00 | 0.00 | 0.00 | 80 | 1017.1 |
| 20260506124211 | 21 | 229 | 1.6 | 4.8 | 0.00 | 0.00 | 0.00 | 83 | 1017.1 |
| 20260506123708 | 20 | 283 | 3.2 | 6.4 | 0.00 | 0.00 | 0.00 | 88 | 1017.2 |
| 20260506123207 | 20 | 132 | 0.0 | 4.8 | 0.00 | 0.00 | 0.00 | 91 | 1017.3 |
| 20260506122703 | 19 | 45 | 0.0 | 4.8 | 0.00 | 0.00 | 0.00 | 91 | 1017.1 |
| 20260506122200 | 18 | 49 | 1.6 | 3.2 | 0.00 | 0.00 | 0.00 | 91 | 1017.0 |
| 20260506121658 | 18 | 91 | 0.0 | 3.2 | 0.00 | 0.00 | 0.00 | 91 | 1017.0 |
| 20260506121154 | 17 | 77 | 3.2 | 3.2 | 0.00 | 0.00 | 0.00 | 91 | 1016.8 |
| 20260506120652 | 17 | 57 | 0.0 | 3.2 | 0.00 | 0.00 | 0.00 | 91 | 1016.8 |
| 20260506120149 | 17 | 40 | 0.0 | 1.6 | 0.00 | 0.00 | 0.00 | 91 | 1016.7 |
| 20260506115648 | 17 | 74 | 0.0 | 3.2 | 0.00 | 0.00 | 0.00 | 91 | 1016.6 |
| 20260506115145 | 17 | 53 | 1.6 | 3.2 | 0.00 | 0.00 | 0.00 | 91 | 1016.7 |
| 20260506114642 | 17 | 103 | 0.0 | 3.2 | 0.00 | 0.00 | 0.00 | 91 | 1016.6 |
| 20260506114140 | 17 | 132 | 0.0 | 1.6 | 0.00 | 0.00 | 0.00 | 91 | 1016.7 |
| 20260506113639 | 16 | 98 | 0.0 | 1.6 | 0.00 | 0.00 | 0.00 | 91 | 1016.6 |
| 20260506113136 | 16 | 139 | 0.0 | 1.6 | 0.00 | 0.00 | 0.00 | 91 | 1016.6 |
| 20260506112631 | 16 | 337 | 0.0 | 1.6 | 0.00 | 0.00 | 0.00 | 91 | 1016.6 |
| 20260506112129 | 15 | 4 | 0.0 | 0.0 | 0.00 | 0.00 | 0.00 | 91 | 1016.8 |
| 20260506111627 | 15 | 16 | 0.0 | 3.2 | 0.00 | 0.00 | 0.00 | 91 | 1016.5 |
| 20260506111124 | 15 | 269 | 0.0 | 0.0 | 0.00 | 0.00 | 0.00 | 91 | 1016.5 |
| 20260506110622 | 15 | 209 | 0.0 | 0.0 | 0.00 | 0.00 | 0.00 | 91 | 1016.4 |
| 20260506110119 | 15 | 209 | 0.0 | 0.0 | 0.00 | 0.00 | 0.00 | 91 | 1016.3 |
| 20260506105615 | 15 | 180 | 0.0 | 0.0 | 0.00 | 0.00 | 0.00 | 91 | 1016.1 |
| 20260506105112 | 15 | 180 | 0.0 | 1.6 | 0.00 | 0.00 | 0.00 | 91 | 1016.1 |
| 20260506104611 | 15 | 187 | 0.0 | 0.0 | 0.00 | 0.00 | 0.00 | 91 | 1016.1 |
| 20260506104108 | 15 | 10 | 0.0 | 0.0 | 0.00 | 0.00 | 0.00 | 91 | 1016.2 |
| 20260506103605 | 15 | 10 | 0.0 | 1.6 | 0.00 | 0.00 | 0.00 | 91 | 1016.2 |
| 20260506103102 | 15 | 351 | 0.0 | 1.6 | 0.00 | 0.00 | 0.00 | 91 | 1016.2 |
| 20260506102600 | 15 | 17 | 0.0 | 0.0 | 0.00 | 0.00 | 0.00 | 91 | 1016.1 |
| 20260506102057 | 15 | 17 | 0.0 | 0.0 | 0.00 | 0.00 | 0.00 | 91 | 1016.3 |
| 20260506101553 | 15 | 149 | 0.0 | 0.0 | 0.00 | 0.00 | 0.00 | 91 | 1016.3 |
| 20260506101051 | 15 | 17 | 0.0 | 0.0 | 0.00 | 0.00 | 0.00 | 91 | 1016.0 |
| 20260506100549 | 15 | 10 | 0.0 | 1.6 | 0.00 | 0.00 | 0.00 | 91 | 1016.1 |
| 20260506100047 | 15 | 109 | 0.0 | 1.6 | 0.00 | 0.00 | 0.00 | 91 | 1016.1 |
| 20260506095545 | 15 | 337 | 0.0 | 0.0 | 0.00 | 0.00 | 0.00 | 91 | 1016.1 |
| 20260506095041 | 15 | 337 | 0.0 | 0.0 | 0.00 | 0.00 | 0.00 | 91 | 1016.2 |
| 20260506094539 | 15 | 268 | 0.0 | 1.6 | 0.00 | 0.00 | 0.00 | 91 | 1016.1 |
| 20260506094037 | 15 | 0 | 0.0 | 0.0 | 0.00 | 0.00 | 0.00 | 91 | 1016.0 |
| 20260506093535 | 15 | 332 | 0.0 | 1.6 | 0.00 | 0.00 | 0.00 | 91 | 1016.1 |
| 20260506093032 | 15 | 10 | 0.0 | 0.0 | 0.00 | 0.00 | 0.00 | 91 | 1016.1 |
| 20260506092531 | 15 | 10 | 0.0 | 0.0 | 0.00 | 0.00 | 0.00 | 91 | 1016.1 |
| 20260506092027 | 15 | 227 | 0.0 | 1.6 | 0.00 | 0.00 | 0.00 | 91 | 1015.9 |
| 20260506091526 | 15 | 7 | 0.0 | 0.0 | 0.00 | 0.00 | 0.00 | 91 | 1016.0 |
| 20260506091022 | 15 | 7 | 0.0 | 0.0 | 0.00 | 0.00 | 0.00 | 91 | 1015.9 |
| 20260506090520 | 15 | 7 | 0.0 | 0.0 | 0.00 | 0.00 | 0.00 | 91 | 1015.8 |
| 20260506090015 | 15 | 7 | 0.0 | 0.0 | 0.00 | 0.00 | 0.00 | 91 | 1015.7 |
| 20260506085513 | 15 | 7 | 0.0 | 0.0 | 0.00 | 0.00 | 0.00 | 91 | 1015.9 |
| 20260506085009 | 15 | 7 | 0.0 | 0.0 | 0.00 | 0.00 | 0.00 | 91 | 1015.8 |
| 20260506084506 | 15 | 47 | 0.0 | 1.6 | 0.00 | 0.00 | 0.00 | 91 | 1015.9 |
| 20260506084002 | 15 | 240 | 0.0 | 0.0 | 0.00 | 0.00 | 0.00 | 91 | 1016.0 |
| 20260506083459 | 15 | 22 | 0.0 | 0.0 | 0.00 | 0.00 | 0.00 | 91 | 1016.0 |
| 20260506082956 | 15 | 0 | 0.0 | 0.0 | 0.00 | 0.00 | 0.00 | 91 | 1016.1 |
| 20260506082453 | 15 | 321 | 0.0 | 0.0 | 0.00 | 0.00 | 0.00 | 91 | 1015.8 |
| 20260506081949 | 15 | 114 | 0.0 | 0.0 | 0.00 | 0.00 | 0.00 | 91 | 1015.9 |
| 20260506081448 | 15 | 114 | 0.0 | 0.0 | 0.00 | 0.00 | 0.00 | 91 | 1015.9 |
| 20260506080944 | 15 | 29 | 0.0 | 0.0 | 0.00 | 0.00 | 0.00 | 91 | 1016.0 |
| 20260506080441 | 15 | 215 | 0.0 | 1.6 | 0.00 | 0.00 | 0.00 | 91 | 1015.7 |
| 20260506073425 | 15 | 127 | 0.0 | 0.0 | 0.00 | 0.00 | 0.00 | 91 | 1015.4 |
| 20260506072923 | 15 | 127 | 0.0 | 0.0 | 0.00 | 0.00 | 0.00 | 91 | 1015.7 |
| 20260506072420 | 15 | 22 | 0.0 | 3.2 | 0.00 | 0.00 | 0.00 | 91 | 1015.4 |
| 20260506071917 | 15 | 254 | 0.0 | 1.6 | 0.00 | 0.00 | 0.00 | 91 | 1015.6 |
| 20260506071415 | 15 | 22 | 0.0 | 0.0 | 0.00 | 0.00 | 0.00 | 91 | 1015.5 |
| 20260506070912 | 15 | 22 | 0.0 | 0.0 | 0.00 | 0.00 | 0.00 | 91 | 1015.7 |
| 20260506070409 | 15 | 22 | 0.0 | 0.0 | 0.00 | 0.00 | 0.00 | 91 | 1015.9 |
| 20260506062346 | 15 | 345 | 0.0 | 1.6 | 0.00 | 0.00 | 0.00 | 91 | 1016.2 |
| 20260506061842 | 15 | 355 | 0.0 | 1.6 | 0.00 | 0.00 | 0.00 | 91 | 1016.5 |
| 20260506061339 | 15 | 286 | 0.0 | 1.6 | 0.00 | 0.00 | 0.00 | 91 | 1016.6 |
| 20260506060837 | 15 | 321 | 0.0 | 0.0 | 0.00 | 0.00 | 0.00 | 91 | 1016.6 |
| 20260506060335 | 15 | 197 | 0.0 | 0.0 | 0.00 | 0.00 | 0.00 | 91 | 1016.5 |
| 20260506051306 | 15 | 282 | 0.0 | 1.6 | 0.00 | 0.00 | 0.00 | 91 | 1016.9 |
| 20260506050804 | 15 | 300 | 0.0 | 1.6 | 0.00 | 0.00 | 0.00 | 91 | 1016.9 |
| 20260506050302 | 15 | 215 | 0.0 | 1.6 | 0.00 | 0.00 | 0.00 | 91 | 1016.9 |
| 20260506044752 | 15 | 161 | 0.0 | 1.6 | 0.00 | 0.00 | 0.00 | 91 | 1017.0 |
| 20260506044249 | 15 | 22 | 0.0 | 1.6 | 0.00 | 0.00 | 0.00 | 91 | 1017.1 |
| 20260506043747 | 15 | 89 | 0.0 | 0.0 | 0.00 | 0.00 | 0.00 | 91 | 1017.2 |
| 20260506043244 | 15 | 89 | 0.0 | 0.0 | 0.00 | 0.00 | 0.00 | 90 | 1017.3 |
| 20260506042743 | 16 | 89 | 0.0 | 0.0 | 0.00 | 0.00 | 0.00 | 90 | 1017.0 |
| 20260506042241 | 16 | 89 | 0.0 | 0.0 | 0.00 | 0.00 | 0.00 | 90 | 1017.2 |
| 20260506041739 | 16 | 89 | 0.0 | 0.0 | 0.00 | 0.00 | 0.00 | 90 | 1017.2 |
| 20260506041235 | 16 | 89 | 0.0 | 0.0 | 0.00 | 0.00 | 0.00 | 90 | 1017.1 |
| 20260506040733 | 16 | 89 | 0.0 | 0.0 | 0.00 | 0.00 | 0.00 | 89 | 1017.2 |
| 20260506040230 | 16 | 89 | 0.0 | 0.0 | 0.00 | 0.00 | 0.00 | 89 | 1017.2 |
| 20260506035726 | 16 | 89 | 0.0 | 0.0 | 0.00 | 0.00 | 0.00 | 89 | 1017.2 |
| 20260506035224 | 16 | 89 | 0.0 | 0.0 | 0.00 | 0.00 | 0.00 | 89 | 1017.3 |
| 20260506034720 | 16 | 89 | 0.0 | 0.0 | 0.00 | 0.00 | 0.00 | 89 | 1017.4 |
| 20260506034218 | 16 | 215 | 0.0 | 0.0 | 0.00 | 0.00 | 0.00 | 88 | 1017.4 |
| 20260506033715 | 16 | 282 | 0.0 | 0.0 | 0.00 | 0.00 | 0.00 | 88 | 1017.4 |
| 20260506033212 | 16 | 282 | 0.0 | 0.0 | 0.00 | 0.00 | 0.00 | 88 | 1017.1 |
| 20260506032709 | 16 | 282 | 0.0 | 0.0 | 0.00 | 0.00 | 0.00 | 87 | 1017.4 |
| 20260506032206 | 16 | 282 | 0.0 | 0.0 | 0.00 | 0.00 | 0.00 | 87 | 1017.4 |
| 20260506031702 | 16 | 282 | 0.0 | 0.0 | 0.00 | 0.00 | 0.00 | 86 | 1017.4 |
| 20260506031200 | 16 | 282 | 0.0 | 0.0 | 0.00 | 0.00 | 0.00 | 86 | 1017.4 |
| 20260506030658 | 16 | 282 | 0.0 | 0.0 | 0.00 | 0.00 | 0.00 | 85 | 1017.3 |
| 20260506030155 | 17 | 282 | 0.0 | 0.0 | 0.00 | 0.00 | 0.00 | 85 | 1017.4 |
| 20260506025646 | 17 | 22 | 0.0 | 1.6 | 0.00 | 0.00 | 0.00 | 84 | 1017.3 |
| 20260506025142 | 17 | 42 | 0.0 | 1.6 | 0.00 | 0.00 | 0.00 | 84 | 1017.2 |
| 20260506024640 | 17 | 139 | 0.0 | 0.0 | 0.00 | 0.00 | 0.00 | 84 | 1017.0 |
| 20260506024136 | 17 | 139 | 0.0 | 0.0 | 0.00 | 0.00 | 0.00 | 83 | 1017.0 |
| 20260506023632 | 17 | 139 | 0.0 | 0.0 | 0.00 | 0.00 | 0.00 | 82 | 1017.1 |
| 20260506023129 | 17 | 139 | 0.0 | 0.0 | 0.00 | 0.00 | 0.00 | 82 | 1017.1 |
| 20260506022627 | 17 | 139 | 0.0 | 0.0 | 0.00 | 0.00 | 0.00 | 81 | 1016.9 |
| 20260506022124 | 17 | 139 | 0.0 | 0.0 | 0.00 | 0.00 | 0.00 | 80 | 1016.9 |
| 20260506021622 | 18 | 139 | 0.0 | 0.0 | 0.00 | 0.00 | 0.00 | 78 | 1016.8 |
| 20260506021119 | 18 | 37 | 0.0 | 3.2 | 0.00 | 0.00 | 0.00 | 78 | 1016.8 |
| 20260506020616 | 18 | 209 | 0.0 | 0.0 | 0.00 | 0.00 | 0.00 | 77 | 1016.7 |
| 20260506020113 | 18 | 120 | 0.0 | 0.0 | 0.00 | 0.00 | 0.00 | 75 | 1016.7 |
| 20260506015611 | 18 | 248 | 3.2 | 4.8 | 0.00 | 0.00 | 0.00 | 75 | 1016.6 |
| 20260506015107 | 19 | 40 | 0.0 | 1.6 | 0.00 | 0.00 | 0.00 | 74 | 1016.6 |
| 20260506014605 | 19 | 260 | 1.6 | 3.2 | 0.00 | 0.00 | 0.00 | 73 | 1016.4 |
| 20260506014100 | 19 | 17 | 0.0 | 3.2 | 0.00 | 0.00 | 0.00 | 73 | 1016.5 |
| 20260506013559 | 19 | 60 | 0.0 | 3.2 | 0.00 | 0.00 | 0.00 | 72 | 1016.5 |
| 20260506013055 | 20 | 307 | 0.0 | 1.6 | 0.00 | 0.00 | 0.00 | 71 | 1016.5 |
| 20260506012551 | 20 | 282 | 0.0 | 4.8 | 0.00 | 0.00 | 0.00 | 71 | 1016.3 |
| 20260506012048 | 20 | 10 | 0.0 | 3.2 | 0.00 | 0.00 | 0.00 | 71 | 1016.3 |
| 20260506011546 | 20 | 74 | 0.0 | 3.2 | 0.00 | 0.00 | 0.00 | 71 | 1016.5 |
| 20260506011042 | 20 | 54 | 1.6 | 3.2 | 0.00 | 0.00 | 0.00 | 71 | 1016.5 |
| 20260506010542 | 20 | 51 | 0.0 | 1.6 | 0.00 | 0.00 | 0.00 | 70 | 1016.2 |
| 20260506010038 | 20 | 250 | 0.0 | 1.6 | 0.00 | 0.00 | 0.00 | 70 | 1016.4 |
| 20260506005535 | 20 | 23 | 0.0 | 1.6 | 0.00 | 0.00 | 0.00 | 70 | 1016.3 |
| 20260506005031 | 20 | 0 | 0.0 | 3.2 | 0.00 | 0.00 | 0.00 | 69 | 1016.3 |
| 20260506004529 | 20 | 98 | 0.0 | 3.2 | 0.00 | 0.00 | 0.00 | 70 | 1016.2 |
| 20260506004025 | 20 | 340 | 0.0 | 3.2 | 0.00 | 0.00 | 0.00 | 69 | 1016.4 |